Location: Unspecified
(0.0000°N, 0.0000°E)
Time: 17:44:56
(UTC+00:00)

KAITUO 1B - Pass Details

Date: 17 July 2019
Orbit: 497 x 515 km, 97.5° (Epoch: 07 December)

Event Time Altitude Azimuth Distance (km) Brightness Sun altitude
Rises 05:33:33 0° 25° (NNE) 2,590 ? -7.6°
Reaches altitude 10° 05:35:44 10° 34° (NE) 1,713 ? -7.1°
Maximum altitude 05:39:07 35° 101° (ESE) 831 ? -6.3°
Drops below altitude 10° 05:42:33 10° 168° (SSE) 1,731 ? -5.5°
Sets 05:44:46 0° 177° (S) 2,623 ? -5.0°
